CZ-6A DEB, 54459

Orbit data source: Space-Track

CZ-6A DEB, 54459 is space debris in SSO originally from a launch on Fri, 11 Nov 2022 UTC launched from the Taiyaun Space Center, China (TSC). Debris objects in space refer to the collection of defunct objects orbiting the Earth. Examples of debris include non-operational satellites, rocket bodies, and fragments generated from explosions, collisions, or faulty payload assembly.

Loading next visibility...
Identifier
54459, 2022-151GK
Orbit
SSO
Country
Flag of CNCN / PRC
Related business
Manufacturer
SAST
Mission
Spacecraft
Bus & Motor
Unknown
Mass
Unknown
Launch date (UTC)
2022-11-11 (4 years ago)
Launch vehicle
Unknown
Launch site
Taiyaun Space Center, China (TSC)
Object type
Payload
Rocket body
Debris
Shape & HBR
Unknown shape, 0.2 m
Radar Cross Section
Medium (>0.1 m² and <1 m²)

Expand to show TLE details & history
Last TLE update: 1 day ago

TLE from 1 day ago
0 CZ-6A DEB
1 54459U 22151GK  26235.18058843  .00000754  00000-0  15377-3 0  9995
2 54459  98.6918 325.5097 0156227  43.5781 317.7633 14.56795975200305
Epoch: 2026-08-23T04:20Z
TLE epoch observation values (Epoch: 2026-08-23T04:20:02.840Z)
Latitude
-0.00007°
Longitude
-70.98246°
Altitude
625.371 km
Speed
7.589 km/s
True Right ascension
21h 42m 02s
True Declination
0° 00' 00"
Sunlit
Object was in full shadow at epoch
Visualization orbit readout
Latitude
Unknown
Longitude
Unknown
Altitude
Unknown
Speed
Unknown
Apparent Right ascension
Unknown
Apparent Declination
Unknown
Sunlit
N/A
Visualization observer readout
Local Sidereal Time
00:23:38
Azimuth
Unknown
Elevation
Unknown
Doppler factor
Unknown
Orbital elements
Apogee altitude
811.236 km
Perigee altitude
590.056 km
Semi-major axis
7,078.783 km
Eccentricity
0.01562
Inclination
98.6918°
RAAN
325.5097°
Arg. of periapsis
43.5781°
True anomaly
316.54237°
Mean anomaly
317.7633°
Eccentric anomaly
317.1546°
Mean motion
3.64423 °/min
Orbital period
98.79 mins
BSTAR
0.00015377
Loading maneuver chart data...
Computing Atmospheric mass density...
Loading historical data...
Loading historical data...
Loading historical data...
Loading historical data...
Loading historical data...
Loading historical data...
Loading historical data...

Documentation

Showing up to 5 results
|